This is the latest recevied weather packets stored in our database for station/object KD2VWU. If no packets are shown the sender has not sent any weather packets the latest 10 day(s).
| Time | Temp. | Humidity | Pressure | Rain* | Wind** | Luminosity | Snow |
|---|---|---|---|---|---|---|---|
| 1777774995 | 9.44° C | 56% | 1008.5 hPa | 0 mm | - | - | - |
| 1777774691 | 9.44° C | 57% | 1008.7 hPa | 0 mm | - | - | - |
| 1777774388 | 9.44° C | 58% | 1008.7 hPa | 0 mm | - | - | - |
| 1777774085 | 9.44° C | 58% | 1008.6 hPa | 0 mm | - | - | - |
| 1777773783 | 9.44° C | 56% | 1008.5 hPa | 0 mm | - | - | - |
| 1777773479 | 9.44° C | 56% | 1008.6 hPa | 0 mm | - | - | - |
| 1777773176 | 9.44° C | 57% | 1008.5 hPa | 0 mm | - | - | - |
| 1777772872 | 9.44° C | 56% | 1008.3 hPa | 0 mm | - | - | - |
| 1777772570 | 9.44° C | 56% | 1008.6 hPa | 0 mm | - | - | - |
| 1777772267 | 9.44° C | 56% | 1008.4 hPa | 0 mm | - | - | - |
| 1777771964 | 9.44° C | 56% | 1008.6 hPa | 0 mm | - | - | - |
| 1777771661 | 10° C | 56% | 1008.5 hPa | 0 mm | - | - | - |
| 1777771359 | 10° C | 55% | 1008.4 hPa | 0 mm | - | - | - |
| 1777771055 | 10° C | 56% | 1008.5 hPa | 0 mm | - | - | - |
| 1777770753 | 10° C | 55% | 1008.4 hPa | 0 mm | - | - | - |
| 1777770448 | 10° C | 54% | 1008.5 hPa | 0 mm | - | - | - |
| 1777770145 | 10° C | 53% | 1008.4 hPa | 0 mm | - | - | - |
| 1777769843 | 10° C | 54% | 1008.3 hPa | 0 mm | - | - | - |
| 1777769540 | 10.56° C | 53% | 1008.4 hPa | 0 mm | - | - | - |
| 1777769236 | 10.56° C | 54% | 1008.4 hPa | 0 mm | - | - | - |
| 1777768935 | 10.56° C | 55% | 1008.3 hPa | 0 mm | - | - | - |
| 1777768631 | 10.56° C | 55% | 1008.1 hPa | 0 mm | - | - | - |
| 1777768329 | 10.56° C | 57% | 1008.2 hPa | 0 mm | - | - | - |
| 1777768025 | 10.56° C | 60% | 1008.2 hPa | 0 mm | - | - | - |
| 1777767722 | 10.56° C | 60% | 1008.1 hPa | 0 mm | - | - | - |
* Rain latest hour (hover to see other rain measurements)
** Current wind speed in m/s (hover to see current wind gust speed)